Augusta, Maine, United States (04330)
Lat: 44.31N, Lon: 69.78W
Wx Zone: MEZ021
Local Info
Past Weather Observations for Monday, November 24, 2014

NOTE: This archive is for the closest National Weather Service station to Augusta. Information may differ from the station used for current weather conditions.

Click here for Long-term Archive

Time Weather Temperature Dewpoint Humidity Pressure Winds Precip Visibility
23:53
Partly Cloudy
Fog And Mist
54°F / 12°C 52°F / 11°C 94% 29.59 in
(1002 mb)
SSE 9.2 mph
(SSE 15 kph)
- 5SM
23:44
Partly Cloudy
Fog And Mist
54°F / 12°C 52°F / 11°C 94% 29.59 in
(1002 mb)
SSE 9.2 mph
(SSE 15 kph)
- 5SM
23:20
Mostly Cloudy
Fog And Mist
54°F / 12°C 54°F / 12°C 100% 29.56 in
(1001 mb)
S 9.2 mph
(S 15 kph)
- 6SM
23:09
Mostly Cloudy
Fog And Mist
54°F / 12°C 54°F / 12°C 100% 29.56 in
(1001 mb)
S 6.9 mph
(S 11 kph)
- 6SM
23:02
Partly Cloudy
54°F / 12°C 54°F / 12°C 100% 29.56 in
(1001 mb)
SSE 8.1 mph
(SSE 13 kph)
- 7SM
22:53
Mostly Cloudy
55°F / 13°C 54°F / 12°C 94% 29.56 in
(1001 mb)
S 10.4 mph
(S 17 kph)
- 8SM
21:53
Overcast
55°F / 13°C 54°F / 12°C 94% 29.56 in
(1001 mb)
S 6.9 mph
(S 11 kph)
- 8SM
20:53
Overcast
55°F / 13°C 55°F / 13°C 100% 29.53 in
(1000 mb)
S 11.5 mph
(S 19 kph)
- 8SM
19:53
Overcast
57°F / 14°C 55°F / 13°C 94% 29.53 in
(1000 mb)
S 10.4 mph
(S 17 kph)
- 8SM
19:11
Overcast
57°F / 14°C 55°F / 13°C 94% 29.53 in
(1000 mb)
S 13.8 mph
(S 22 kph)
- 7SM
18:53
Overcast
57°F / 14°C 55°F / 13°C 94% 29.56 in
(1001 mb)
S 12.7 mph
(S 20 kph)
- 7SM
17:53
Overcast
57°F / 14°C 57°F / 14°C 100% 29.53 in
(1000 mb)
S 10.4 mph
(S 17 kph)
- 7SM
17:19
Overcast
Fog And Mist
57°F / 14°C 57°F / 14°C 100% 29.53 in
(1000 mb)
S 15 mph
(S 24 kph)
- 3SM
17:05
Overcast
Fog And Mist
57°F / 14°C 57°F / 14°C 100% 29.53 in
(1000 mb)
SSE 12.7 mph
(SSE 20 kph)
- 1 1/4SM
16:53
Obscured
Fog And Mist
57°F / 14°C 57°F / 14°C 100% 29.53 in
(1000 mb)
S 11.5 mph
(S 19 kph)
- 3/4SM
16:33
Overcast
Fog And Mist
57°F / 14°C 57°F / 14°C 100% 29.53 in
(1000 mb)
S 8.1 mph
(S 13 kph)
- 1 1/4SM
16:17
Obscured
Fog And Mist
57°F / 14°C 57°F / 14°C 100% 29.53 in
(1000 mb)
S 11.5 mph
(S 19 kph)
- 3/4SM
15:53
Obscured
Fog
57°F / 14°C 55°F / 13°C 94% 29.56 in
(1001 mb)
S 11.5 mph
(S 19 kph)
0.00 in
(0.00 mm)
1/4SM
15:33
Obscured
Fog
55°F / 13°C 55°F / 13°C 100% 29.56 in
(1001 mb)
S 10.4 mph
(S 17 kph)
0.00 in
(0.00 mm)
1/4SM
15:25
Overcast
Fog And Mist
55°F / 13°C 55°F / 13°C 100% 29.56 in
(1001 mb)
S 9.2 mph
(S 15 kph)
0.00 in
(0.00 mm)
1 3/4SM
15:10
Overcast
Light Rain
55°F / 13°C 55°F / 13°C 100% 29.56 in
(1001 mb)
S 10.4 mph
(S 17 kph)
0.00 in
(0.00 mm)
3SM
14:53
Overcast
Fog And Mist
55°F / 13°C 55°F / 13°C 100% 29.59 in
(1002 mb)
S 11.5 mph
(S 19 kph)
0.00 in
(0.00 mm)
1 1/2SM
14:36
Overcast
Fog And Mist
55°F / 13°C 55°F / 13°C 100% 29.59 in
(1002 mb)
S 10.4 mph
(S 17 kph)
0.00 in
(0.00 mm)
2SM
14:23
Overcast
Fog And Mist
55°F / 13°C 55°F / 13°C 100% 29.59 in
(1002 mb)
S 12.7 mph
(S 20 kph)
0.00 in
(0.00 mm)
2SM
14:06
Overcast
Light Rain
57°F / 14°C 55°F / 13°C 94% 29.59 in
(1002 mb)
S 13.8 mph
(S 22 kph)
0.00 in
(0.00 mm)
1 3/4SM
13:53
Overcast
Fog And Mist
57°F / 14°C 55°F / 13°C 94% 29.59 in
(1002 mb)
S 19.6 mph
(S 32 kph)
0.01 in
(0.25 mm)
2 1/2SM
12:53
Overcast
Light Rain
57°F / 14°C 55°F / 13°C 94% 29.62 in
(1003 mb)
S 13.8 mph
(S 22 kph)
0.04 in
(1.02 mm)
4SM
12:44
Overcast
Light Rain
57°F / 14°C 55°F / 13°C 94% 29.62 in
(1003 mb)
S 20.7 mph
(S 33 kph)
0.04 in
(1.02 mm)
2 1/2SM
12:29
Overcast
Light Rain
57°F / 14°C 55°F / 13°C 94% 29.65 in
(1004 mb)
S 20.7 mph
(S 33 kph)
0.04 in
(1.02 mm)
1 1/2SM
11:53
Overcast
Light Rain
57°F / 14°C 55°F / 13°C 94% 29.65 in
(1004 mb)
S 18.4 mph
(S 30 kph)
0.12 in
(3.05 mm)
2 1/2SM
11:43
Overcast
Light Rain
55°F / 13°C 55°F / 13°C 100% 29.68 in
(1005 mb)
S 17.3 mph
(S 28 kph)
0.12 in
(3.05 mm)
3SM
10:53
Overcast
Rain
55°F / 13°C 54°F / 12°C 94% 29.71 in
(1006 mb)
SSE 21.9 mph
(SSE 35 kph)
0.19 in
(4.83 mm)
1 1/2SM
10:33
Overcast
Light Rain
54°F / 12°C 54°F / 12°C 100% 29.74 in
(1007 mb)
S 18.4 mph
(S 30 kph)
0.11 in
(2.79 mm)
2SM
10:19
Overcast
Light Rain
54°F / 12°C 54°F / 12°C 100% 29.74 in
(1007 mb)
SSE 18.4 mph
(SSE 30 kph)
0.08 in
(2.03 mm)
3SM
09:52
Overcast
Light Rain
54°F / 12°C 54°F / 12°C 100% 29.77 in
(1008 mb)
S 16.1 mph
(S 26 kph)
0.11 in
(2.79 mm)
1 3/4SM
09:51
Overcast
Light Rain
54°F / 12°C 54°F / 12°C 100% 29.77 in
(1008 mb)
SSE 18.4 mph
(SSE 30 kph)
0.10 in
(2.54 mm)
1 3/4SM
09:40
Overcast
Light Rain
54°F / 12°C 54°F / 12°C 100% 29.77 in
(1008 mb)
SSE 16.1 mph
(SSE 26 kph)
0.08 in
(2.03 mm)
4SM
09:23
Overcast
Light Rain
54°F / 12°C 52°F / 11°C 94% 29.8 in
(1009 mb)
SSE 16.1 mph
(SSE 26 kph)
0.06 in
(1.52 mm)
2 1/2SM
09:09
Overcast
Light Rain
52°F / 11°C 52°F / 11°C 100% 29.83 in
(1010 mb)
SSE 13.8 mph
(SSE 22 kph)
0.03 in
(0.76 mm)
3SM
08:53
Overcast
Rain
52°F / 11°C 50°F / 10°C 94% 29.86 in
(1011 mb)
SSE 10.4 mph
(SSE 17 kph)
0.12 in
(3.05 mm)
2 1/2SM
08:33
Overcast
Light Rain
48°F / 9°C 48°F / 9°C 100% 29.89 in
(1012 mb)
SE 10.4 mph
(SE 17 kph)
0.07 in
(1.78 mm)
2SM
08:25
Overcast
Light Rain
48°F / 9°C 48°F / 9°C 100% 29.89 in
(1012 mb)
SE 10.4 mph
(SE 17 kph)
0.05 in
(1.27 mm)
1 1/2SM
08:04
Obscured
Rain
48°F / 9°C 46°F / 8°C 94% 29.92 in
(1013 mb)
SE 8.1 mph
(SE 13 kph)
0.02 in
(0.51 mm)
1/2SM
07:53
Obscured
Light Rain
46°F / 8°C 46°F / 8°C 100% 29.92 in
(1013 mb)
SSE 8.1 mph
(SSE 13 kph)
0.02 in
(0.51 mm)
1/4SM
07:25
Obscured
Fog
46°F / 8°C 46°F / 8°C 100% 29.95 in
(1014 mb)
SSE 6.9 mph
(SSE 11 kph)
0.00 in
(0.00 mm)
1/4SM
07:14
Overcast
Fog And Mist
46°F / 8°C 45°F / 7°C 93% 29.95 in
(1014 mb)
SSE 8.1 mph
(SSE 13 kph)
0.00 in
(0.00 mm)
1 3/4SM
06:53
Overcast
Light Rain
45°F / 7°C 45°F / 7°C 100% 29.98 in
(1015 mb)
SSE 6.9 mph
(SSE 11 kph)
0.00 in
(0.00 mm)
5SM
06:12
Overcast
Fog And Mist
45°F / 7°C 45°F / 7°C 100% 29.98 in
(1015 mb)
SSE 9.2 mph
(SSE 15 kph)
- 5SM
05:53
Overcast
Fog And Mist
45°F / 7°C 43°F / 6°C 93% 30.01 in
(1016 mb)
SSE 9.2 mph
(SSE 15 kph)
- 3SM
05:46
Overcast
Fog And Mist
45°F / 7°C 43°F / 6°C 93% 30.01 in
(1016 mb)
SSE 6.9 mph
(SSE 11 kph)
- 2SM
05:34
Obscured
Fog
43°F / 6°C 43°F / 6°C 100% 30.01 in
(1016 mb)
SSE 6.9 mph
(SSE 11 kph)
- 1/2SM
05:23
Overcast
Fog And Mist
45°F / 7°C 43°F / 6°C 93% 30.01 in
(1016 mb)
SSE 5.8 mph
(SSE 9 kph)
- 1 1/4SM
04:53
Obscured
Fog
43°F / 6°C 43°F / 6°C 100% 30.04 in
(1017 mb)
SSE 4.6 mph
(SSE 7 kph)
- 1/2SM
03:53
Obscured
Fog
43°F / 6°C 43°F / 6°C 100% 30.04 in
(1017 mb)
SE 9.2 mph
(SE 15 kph)
- 1/4SM
03:51
Obscured
Fog
43°F / 6°C 43°F / 6°C 100% 30.04 in
(1017 mb)
SE 9.2 mph
(SE 15 kph)
- 1/2SM
03:13
Obscured
Fog
43°F / 6°C 43°F / 6°C 100% 30.06 in
(1018 mb)
SSE 8.1 mph
(SSE 13 kph)
- 1/4SM
03:02
Mostly Cloudy
Fog And Mist
43°F / 6°C 43°F / 6°C 100% 30.06 in
(1018 mb)
SSE 9.2 mph
(SSE 15 kph)
- 1 3/4SM
02:53
Partly Cloudy
Fog And Mist
43°F / 6°C 43°F / 6°C 100% 30.06 in
(1018 mb)
SSE 6.9 mph
(SSE 11 kph)
- 2 1/2SM
02:50
Partly Cloudy
Fog And Mist
43°F / 6°C 41°F / 5°C 93% 30.06 in
(1018 mb)
SE 6.9 mph
(SE 11 kph)
- 2 1/2SM
01:53
Overcast
Fog And Mist
41°F / 5°C 41°F / 5°C 100% 30.09 in
(1019 mb)
SSE 4.6 mph
(SSE 7 kph)
- 3SM
00:53
Overcast
Fog And Mist
39°F / 4°C 39°F / 4°C 100% 30.09 in
(1019 mb)
SE 6.9 mph
(SE 11 kph)
- 5SM
Time Weather Temperature Dewpoint Humidity Pressure Winds Precip Visibility


Weather for websites

WeatherForYou.com, LLC is not responsible for any damages or problems caused by this service. Current weather conditions are obtained from the closest station including government and personal stations which may have varying degrees of accuracy. Weather forecasts are derived from the NOAA NDFD. Like all things, this site belongs to Jesus Christ... He just trusts me to maintain it. If you have any questions or comments email webmaster@weatherforyou.com

Copyright © 2014, WeatherForYou.com LLC. All rights reserved.